Weather History for Northeast Philadelphia, PA

Change the Weather History Date:

Friday, January 18, 2013

  Actual Average Record
Temperature  
Mean Temperature 32 °F -  
Max Temperature 37 °F 34 °F 66 °F (2006)
Min Temperature 28 °F 21 °F 6 °F (2000)
Degree Days  
Heating Degree Days 32    
Moisture  
Dew Point 14 °F    
Average Humidity 51    
Maximum Humidity 76    
Minimum Humidity 37    
Precipitation  
Precipitation 0.00 in - - ()
Sea Level Pressure  
Sea Level Pressure 30.37 in    
Wind  
Wind Speed 8 mph (NW)    
Max Wind Speed 21 mph    
Max Gust Speed 28 mph    
Visibility 10 miles    
Events Rain    
Averages and records for this station are not official NWS values.
T = Trace of Precipitation, MM = Missing Value Source: NWS Daily Summary

Daily Weather History Graph

Daily Weather History Graph

Search for Another Location

Airport:

Trip Planner

Search our weather history database for the weather conditions in past years. The results will help you decide how hot, cold, wet, or windy it might be!

Date:

Astronomy

Jan. 18, 2013 Rise Set
Actual Time 7:18 AM EST 5:02 PM EST
Civil Twilight 6:49 AM EST 5:32 PM EST
Nautical Twilight 6:15 AM EST 6:05 PM EST
Astronomical Twilight 5:43 AM EST 6:37 PM EST
Moon 10:55 AM EST (1/18) No Moon Set
Length of Visible Light 10h 43m
Length of Day
9h 43m
Waxing Crescent, 47% of the Moon is Illuminated
Jan 18
Waxing Crescent
Jan 18
First Quarter
Jan 26
Full
Feb 3
Last Quarter
Feb 10
New

Hourly Weather History & Observations

Time (EST) Temp. Windchill Dew Point Humidity Pressure Visibility Wind Dir Wind Speed Gust Speed Precip Events Conditions
12:54 AM 37.0 °F 34.5 °F 28.0 °F 70% 30.06 in 10.0 mi North 3.5 mph - N/A   Clear
1:54 AM 36.0 °F 33.3 °F 28.0 °F 73% 30.08 in 10.0 mi NNW 3.5 mph - N/A   Clear
2:54 AM 36.0 °F - 28.0 °F 73% 30.10 in 10.0 mi Calm Calm - N/A   Overcast
3:54 AM 35.1 °F 28.6 °F 28.0 °F 76% 30.11 in 10.0 mi NNW 8.1 mph - N/A   Mostly Cloudy
4:54 AM 34.0 °F 28.0 °F 25.0 °F 70% 30.14 in 10.0 mi North 6.9 mph - N/A   Overcast
5:54 AM 34.0 °F 24.6 °F 23.0 °F 64% 30.20 in 10.0 mi North 13.8 mph - 0.00 in Rain Light Rain
6:54 AM 30.9 °F 18.4 °F 17.1 °F 57% 30.28 in 10.0 mi NNW 20.7 mph 27.6 mph 0.00 in   Overcast
7:54 AM 28.9 °F 18.6 °F 12.9 °F 51% 30.35 in 10.0 mi North 12.7 mph 27.6 mph N/A   Clear
8:54 AM 28.9 °F 16.1 °F 10.0 °F 45% 30.41 in 10.0 mi North 19.6 mph 27.6 mph N/A   Clear
9:54 AM 30.0 °F 19.1 °F 9.0 °F 41% 30.45 in 10.0 mi NNW 15.0 mph 21.9 mph N/A   Clear
10:54 AM 30.0 °F 17.5 °F 9.0 °F 41% 30.48 in 10.0 mi NNW 19.6 mph 26.5 mph N/A   Mostly Cloudy
11:54 AM 30.0 °F 20.5 °F 8.1 °F 40% 30.47 in 10.0 mi NNW 11.5 mph 19.6 mph N/A   Clear
12:54 PM 32.0 °F 23.6 °F 9.0 °F 38% 30.45 in 10.0 mi NNW 10.4 mph 20.7 mph N/A   Clear
1:54 PM 32.0 °F 23.6 °F 9.0 °F 38% 30.46 in 10.0 mi NNW 10.4 mph - N/A   Clear
2:54 PM 32.0 °F 23.6 °F 8.1 °F 37% 30.47 in 10.0 mi North 10.4 mph - N/A   Clear
3:54 PM 30.9 °F 24.3 °F 8.1 °F 38% 30.48 in 10.0 mi West 6.9 mph - N/A   Clear
4:54 PM 30.0 °F 22.4 °F 8.1 °F 40% 30.50 in 10.0 mi WNW 8.1 mph - N/A   Clear
5:54 PM 28.9 °F 25.2 °F 9.0 °F 43% 30.50 in 10.0 mi WNW 3.5 mph - N/A   Clear
6:54 PM 28.0 °F 24.2 °F 10.9 °F 49% 30.52 in 10.0 mi SW 3.5 mph - N/A   Clear
7:54 PM 28.9 °F 23.9 °F 9.0 °F 43% 30.51 in 10.0 mi SW 4.6 mph - N/A   Clear
8:54 PM 28.0 °F - 10.0 °F 47% 30.50 in 10.0 mi Calm Calm - N/A   Clear
9:54 PM 28.9 °F - 10.9 °F 47% 30.49 in 10.0 mi Calm Calm - N/A   Clear
10:54 PM 28.0 °F - 10.9 °F 49% 30.46 in 10.0 mi Calm Calm - N/A   Clear
11:54 PM 28.0 °F 22.8 °F 10.9 °F 49% 30.45 in 10.0 mi South 4.6 mph - N/A   Clear